Home   Weather   Pago Pago   Past weeks

Flag for American Samoa Past Weather in Pago Pago, American Samoa — Yesterday and Last 2 Weeks

Now
83 °F

Partly cloudy.


Feels Like: 94 °F
Forecast: 80 / 87 °F
Wind: 16 mph from East

Location: Pago Pago / Int. Airp.

Current Time: Feb 24, 2018 at 11:11:17 pm

Latest Report: Feb 24, 2018 at 9:50 pm


Visibility: 10 mi

Pressure: 29.88 "Hg

Humidity: 86%

Dew Point: 79 °F

Location of Pago PagoLocation

Past Weather in Pago Pago — Graph

°F

Pago Pago Temperature Yesterday

Maximum temperature yesterday: 81 °F (at 9:50 pm)
Minimum temperature yesterday: 76 °F (at 1:50 am)
Average temperature yesterday: 79 °F

High & Low Weather Summary for the Past Weeks

 TemperatureHumidityPressure
High89 °F (Feb 12, 1:50 pm)100% (Feb 21, 10:51 pm)29.91 "Hg (Feb 21, 10:51 pm)
Low76 °F (Feb 19, 5:50 am)65% (Feb 13, 3:50 pm)29.46 "Hg (Feb 10, 3:50 am)
Average82 °F82%29.72 "Hg
* Reported Feb 9 9:51 pm — Feb 24 9:50 pm, Pago Pago. Weather by CustomWeather, © 2018

Note: Actual official high and low records may vary slightly from our data, if they occured in-between our weather recording intervals... More about our weather records

Advertising

Pago Pago Weather History for the Previous 24 Hours

Scroll right to see more
 ConditionsComfort  
Time TempWeatherWind HumidityBarometerVisibility
9:50 pm
Sat, Feb 24
83 °FPartly cloudy.16 mph86%29.88 "Hg10 mi
8:54 pm83 °FMostly cloudy.8 mph86%29.88 "Hg10 mi
6:50 pm82 °FMostly cloudy.7 mph89%29.85 "Hg10 mi
5:50 pm84 °FCloudy.16 mph86%29.83 "Hg12 mi
4:50 pm86 °FCloudy.15 mph79%29.81 "Hg12 mi
3:50 pm86 °FBroken clouds.15 mph82%29.81 "Hg12 mi
2:51 pm88 °FBroken clouds.15 mph79%29.82 "Hg12 mi
1:50 pm88 °FBroken clouds.16 mph78%29.83 "Hg12 mi
12:51 pm88 °FBroken clouds.12 mph79%29.85 "Hg12 mi
11:50 am87 °FBroken clouds.18 mph78%29.88 "Hg12 mi
10:50 am86 °FBroken clouds.13 mph79%29.88 "Hg12 mi
9:53 am84 °FBroken clouds.7 mph87%29.90 "Hg12 mi
8:51 am86 °FBroken clouds.10 mph79%29.90 "Hg12 mi
7:50 am84 °FBroken clouds.12 mph84%29.89 "Hg12 mi
6:50 am82 °FBroken clouds.13 mph88%29.88 "Hg12 mi
5:51 am82 °FPartly cloudy.8 mph86%29.86 "Hg10 mi
4:50 am82 °FPassing clouds.9 mph84%29.85 "Hg10 mi
3:51 am81 °FPartly cloudy.8 mph85%29.83 "Hg10 mi
2:51 am81 °FPartly cloudy.8 mph85%29.84 "Hg10 mi
1:50 am81 °FPartly cloudy.12 mph85%29.86 "Hg10 mi
12:50 am81 °FPartly cloudy.8 mph86%29.88 "Hg10 mi
11:50 pm
Fri, Feb 23
81 °FPartly cloudy.8 mph89%29.89 "Hg10 mi
Weather by CustomWeather, © 2018

See weather overview